Agadir Al Massira, Morocco

2:36 AM WEST on April 24, 2018 (GMT +0100)
Agadir Al Massira

Weather History for GMAD - December, 2013

Change the Weather History Date:

Sunday, December 22, 2013

  Actual Average Record
Temperature  
Mean Temperature 55 °F -  
Max Temperature 71 °F - - ()
Min Temperature 39 °F - - ()
Degree Days  
Heating Degree Days 10    
Growing Degree Days 5 (Base 50)    
Moisture  
Dew Point 37 °F    
Average Humidity 55    
Maximum Humidity 87    
Minimum Humidity 13    
Precipitation  
Precipitation 0.00 in - - ()
Sea Level Pressure  
Sea Level Pressure 30.31 in    
Wind  
Wind Speed 2 mph ()    
Max Wind Speed 9 mph    
Max Gust Speed -    
Visibility 6.0 miles    
Events      
T = Trace of Precipitation, MM = Missing Value Source: Averaged Metar Reports

Daily Weather History Graph

Daily Weather History Graph

Search for Another Location

Airport or City:

Astronomy

Dec. 22, 2013 Rise Set
Actual Time 7:30 AM WET 5:42 PM WET
Civil Twilight 7:04 AM WET 6:08 PM WET
Nautical Twilight 6:34 AM WET 6:38 PM WET
Astronomical Twilight 6:04 AM WET 7:07 PM WET
Moon 10:23 PM WET (12/22) 10:37 AM WET (12/22)
Length of Visible Light 11h 04m
Length of Day
10h 11m
Waning Gibbous, 78% of the Moon is Illuminated
Dec 22
Waning Gibbous
Dec 25
Last Quarter
Jan 1
New
Jan 8
First Quarter
Jan 16
Full

Hourly Weather History & Observations

Time (WET) Temp. Windchill Dew Point Humidity Pressure Visibility Wind Dir Wind Speed Gust Speed Precip Events Conditions
1:00 AM 42.8 °F - 39.2 °F 87% 30.30 in - Calm Calm - N/A   Clear
2:00 AM 44.6 °F - 37.4 °F 76% 30.30 in - Calm Calm - N/A   Clear
3:00 AM 41 °F - 36 °F 74% 30.32 in 6 mi Calm Calm - -  
3:00 AM 41.0 °F - 35.6 °F 81% 30.30 in - Calm Calm - N/A   Clear
4:00 AM 41.0 °F - 33.8 °F 76% 30.27 in - Calm Calm - N/A   Clear
5:00 AM 42.8 °F 37.5 °F 35.6 °F 76% 30.27 in - East 9.2 mph - N/A   Clear
6:00 AM 43 °F - 35 °F 63% 30.31 in 6 mi East 2.3 mph - -  
6:00 AM 42.8 °F - 35.6 °F 76% 30.30 in - East 2.3 mph - N/A   Clear
7:00 AM 42.8 °F 38.6 °F 33.8 °F 70% 30.30 in - East 6.9 mph - N/A   Clear
8:00 AM 44.6 °F 40.2 °F 33.8 °F 66% 30.33 in - East 8.1 mph - N/A   Clear
9:00 AM 48 °F - 34 °F 47% 30.36 in 6 mi East 8.1 mph - -  
9:00 AM 48.2 °F - 33.8 °F 58% 30.33 in - East 8.1 mph - N/A   Clear
10:00 AM 55.4 °F - 35.6 °F 47% 30.36 in - ENE 5.8 mph - N/A   Clear
11:00 AM 60.8 °F - 33.8 °F 36% 30.36 in - ENE 1.2 mph - N/A   Clear
12:00 PM 66 °F - 34 °F 19% 30.35 in 6 mi Calm Calm - -  
12:00 PM 66.2 °F - 33.8 °F 30% 30.33 in - Calm Calm - N/A   Clear
1:00 PM 69.8 °F - 33.8 °F 27% 30.30 in - Calm Calm - N/A   Clear
2:00 PM 71.6 °F - 30.2 °F 22% 30.27 in - Calm Calm - N/A   Clear
3:00 PM 70 °F - 31 °F 13% 30.28 in 6 mi WSW 2.3 mph - -  
3:00 PM 69.8 °F - 30.2 °F 23% 30.27 in - Variable 2.3 mph - N/A   Clear
4:00 PM 68.0 °F - 35.6 °F 30% 30.27 in - West 9.2 mph - N/A   Clear
5:00 PM 64.4 °F - 37.4 °F 37% 30.27 in - West 8.1 mph - N/A   Clear
6:00 PM 60 °F - 41 °F 37% 30.30 in 6 mi SW 3.5 mph - -  
6:00 PM 59.0 °F - 41.0 °F 51% 30.30 in - SW 3.5 mph - N/A   Clear
7:00 PM 57.2 °F - 44.6 °F 63% 30.30 in - Calm Calm - N/A   Clear
8:00 PM 55.4 °F - 46.4 °F 72% 30.30 in - South 5.8 mph - N/A   Clear
9:00 PM 52 °F - 44 °F 67% 30.35 in 6 mi SSE 4.6 mph - -  
9:00 PM 51.8 °F - 44.6 °F 76% 30.33 in - SSE 4.6 mph - N/A   Clear
10:00 PM 46.4 °F - 39.2 °F 76% 30.33 in - Calm Calm - N/A   Clear
11:00 PM 46.4 °F 43.5 °F 39.2 °F 76% 30.33 in - ENE 5.8 mph - N/A   Clear